C/2014 S3 ( PanSTARRS )

Japanese version
Home page
Updated on December 24, 2014

---------------------------------------------------------------------

* Profile

Discovery Date September 22, 2014
Magnitude 21.5 mag
Discoverer Pan-STARRS 1 telescope (Haleakala)

* Orbital Elements

Epoch 2014 Aug. 11.0 TT = JDT 2456880.5
T 2014 Aug. 13.31343 TT                                 MPC
q   2.0492289            (2000.0)            P               Q
z  +0.0114302      Peri.  293.14086     +0.45426636     +0.89077456
 +/-0.0005332      Node   356.05258     +0.87004506     -0.44052609
e   0.9765769      Incl.  169.32038     +0.19147758     -0.11161294
From 39 observations 2014 Sept. 22-Oct. 25, mean residual 0".4.

* Magnitudes Graph

        m1 = 16.5 + 5 log d + 10.0 log r

---------------------------------------------------------------------

The orbital elements are published on M.P.E.C. 2014-U124.
The magnitudes graphs are made with Comet for Windows.

---------------------------------------------------------------------

Copyright(C) Seiichi Yoshida (comet@aerith.net). All rights reserved.